Tracking 28052 objects as of 24-Sep-2023
HD Live streaming from Space Station
objects crossing your sky now

THORAD DELTA 1 DEB

Track THORAD DELTA 1 DEB now!
10-day predictions


NORAD ID: 8561
Int'l Code: 1974-089CY
Perigee: 1,351.1 km
Apogee: 1,455.6 km
Inclination: 101.6 °
Period: 113.7 minutes
Semi major axis: 7774 km
RCS: 0.0788 m2 (small)
Launch date: November 15, 1974
Source: United States (US)
Launch site: AIR FORCE WESTERN TEST RANGE (AFWTR)

Note: This is SATELLITE DEBRIS
Your satellite tracking list
Your tracking list is empty




NASA's NSSDC Master Catalog

Two Line Element Set (TLE):
1 08561U 74089CY  23267.60600313  .00000571  00000-0  32270-2 0  9996
2 08561 101.5967 296.7419 0067263   2.1909 149.5246 12.66504671249086
Source of the keplerian elements: AFSPC